This is the latest recevied weather packets stored in our database for station/object K4ROM-1. If no packets are shown the sender has not sent any weather packets the latest 10 day(s).
| Time | Temp. | Humidity | Pressure | Rain* | Wind** | Luminosity | Snow |
|---|---|---|---|---|---|---|---|
| 1777957203 | 15° C | 69% | 1016.5 hPa | 0 mm | 0 m/s | - | - |
| 1777956603 | 15° C | 68% | 1016.5 hPa | 0 mm | 0 m/s | - | - |
| 1777956003 | 15° C | 66% | 1016.6 hPa | 0 mm | 0 m/s | - | - |
| 1777955403 | 15° C | 65% | 1016.8 hPa | 0 mm | 0 m/s | - | - |
| 1777954803 | 15° C | 64% | 1016.6 hPa | 0 mm | 0 m/s | - | - |
| 1777954203 | 15° C | 62% | 1016.8 hPa | 0 mm | 0 m/s | - | - |
| 1777953603 | 15° C | 61% | 1016.7 hPa | 0 mm | 0 m/s | - | - |
| 1777953003 | 15° C | 60% | 1016.5 hPa | 0 mm | 0 m/s | - | - |
| 1777952404 | 15° C | 61% | 1016.6 hPa | 0 mm | 0 m/s | - | - |
| 1777951803 | 15.56° C | 59% | 1016.5 hPa | 0 mm | 0 m/s | - | - |
| 1777951202 | 16.11° C | 57% | 1016.7 hPa | 0 mm | 0 m/s | - | - |
| 1777950604 | 16.11° C | 55% | 1016.5 hPa | 0 mm | 0 m/s | - | - |
| 1777950003 | 16.67° C | 54% | 1016.6 hPa | 0 mm | 0 m/s | - | - |
| 1777949403 | 16.67° C | 53% | 1016.6 hPa | 0 mm | 0 m/s | - | - |
| 1777948803 | 16.67° C | 53% | 1016.6 hPa | 0 mm | 0 m/s | - | - |
| 1777948203 | 17.22° C | 51% | 1016.6 hPa | 0 mm | 0 m/s | - | - |
| 1777947603 | 17.22° C | 50% | 1016.3 hPa | 0 mm | 0 m/s | - | - |
| 1777947003 | 16.67° C | 48% | 1016.4 hPa | 0 mm | 0 m/s | - | - |
| 1777946404 | 16.67° C | 49% | 1016.1 hPa | 0 mm | 0 m/s | - | - |
| 1777945203 | 17.22° C | 49% | 1016 hPa | 0 mm | 0 m/s | - | - |
| 1777944603 | 17.22° C | 48% | 1015.9 hPa | 0 mm | 0 m/s | - | - |
| 1777944003 | 17.78° C | 46% | 1015.6 hPa | 0 mm | 0 m/s | - | - |
| 1777943404 | 17.78° C | 45% | 1015.5 hPa | 0 mm | 0 m/s | - | - |
| 1777942803 | 18.33° C | 45% | 1015.6 hPa | 0 mm | 0 m/s | - | - |
| 1777942202 | 18.89° C | 45% | 1015.6 hPa | 0 mm | 0 m/s | - | - |
* Rain latest hour (hover to see other rain measurements)
** Current wind speed in m/s (hover to see current wind gust speed)